Regional Weather Roundup
Issued by NWS

Home | Current Version | Previous Version | Text Only | Print | Product List | Glossary On
Versions: 1 2 3 4 5 6 7 8 9 10 11 12 13 14 15 16 17 18 19 20 21 22 23 24 25 26 27 28 29 30 31 32 33 34 35 36 37 38 39 40 41 42 43 44 45 46 47 48 49 50
000
ASUS42 KTBW 052010
RWRFL
FLORIDA REGIONAL WEATHER ROUNDUP
NATIONAL WEATHER SERVICE TAMPA BAY RUSKIN FL
300 PM EST THU MAR 05 2015

NOTE: "FAIR" INDICATES FEW OR NO CLOUDS BELOW 12,000 FEET WITH NO
SIGNIFICANT WEATHER AND/OR OBSTRUCTIONS TO VISIBILITY.


FLZ001>010-012>015-112-114-115-052100-
PANHANDLE FLORIDA

CITY           SKY/WX    TMP DP  RH WIND       PRES   REMARKS
PENSACOLA      MOSUNNY   57  43  59 N22G31    30.10S
PENSACOLA NAS  PTSUNNY   57  45  64 N17G28    30.10S
MILTON NAS     PTSUNNY   52  42  69 N20G28    30.13R
CRESTVIEW      MOSUNNY   61  49  64 NW14G22   30.11S
DUKE FIELD     PTSUNNY   59  49  69 N21G26    30.07F
VALPARAISO     PTSUNNY   59  50  72 N16       30.07F
TRI COUNTY     CLOUDY    54  51  90 NW8       30.09R
PANAMA CITY    CLOUDY    57  53  86 N10       30.05F
TYNDALL AFB    CLOUDY    62  60  94 N9        30.06S
APALACHICOLA   PTSUNNY   75  68  78 SW12      30.03F

STATION/POSITION SKY/WX   TEMP    WIND        PRES    WAVE   SWELL
                          AIR SEA DIR/SP/G            HT/PER HT/PER
                          (F)     (DEG/KT/KT) (MB)    (FT/S) (FT/S)
30.1N   87.6W              57 63  350/ 19/ 21 1018.5F   3/ 7   2/ 7
29.2N   88.2W              56 71  360/ 25/ 29 1020.1S
28.7N   86.0W              74 72  210/ 12/ 14 1017.1F   4/ 7   3/ 7
PANAMA CITY BEAC           57 62   30/  9/ 12 1017.3F
CAPE SAN BLAS    NOT AVBL
TOWER C                    69     190/ 17/ 18 1016.6F
28.5N   84.5W              71 69  180/ 10/ 12 1017.8F   3/ 7   2/ 7

$$
FLZ011-016>038-118-127-128-134-139-239-052100-
NORTH FLORIDA

CITY           SKY/WX    TMP DP  RH WIND       PRES   REMARKS
MARIANNA       LGT RAIN  57  56  96 W7        30.06S
TALLAHASSEE    LGT RAIN  79  68  69 S15G24    29.99F
CROSS CITY       N/A     80  68  66 SW12G21   30.05F
LAKE CITY      PTSUNNY   82  64  54 SW14G22   30.03F
GAINESVILLE    MOSUNNY   81  64  56 SW15G23   30.04F
MAYPORT NAS    PTSUNNY   84  62  47 SW13G23   30.01F
JACKSONVILLE   PTSUNNY   84  61  45 W17G24    30.00F
JAX NAS        PTSUNNY   87  59  38 SW16      30.02F
JAX CRAIG      MOSUNNY   84  60  44 SW16      30.01F
JAX CECIL      PTSUNNY   84  61  45 SW17G23   30.02F
FERNANDINA BEA FAIR      88  63  42 SW15G23   30.00F
ST AUGUSTINE   MOSUNNY   85  62  46 W12G18    30.03F

STATION/POSITION SKY/WX   TEMP    WIND        PRES    WAVE   SWELL
                          AIR SEA DIR/SP/G            HT/PER HT/PER
                          (F)     (DEG/KT/KT) (MB)    (FT/S) (FT/S)
SHELL POINT                65     180/ 11/ 17   N/A
KEATON BEACH               67     180/ 16/ 19 1017.8F
CEDAR KEY                  67     200/ 13/ 16 1019.3F
FERNANDINA                 79 62  220/ 14/ 18 1015.4F
30.7N   81.3W                 56                N/A     3/12   2/12
MAYPORT                    79 60  230/ 15/ 23 1016.3F
31.4N   80.9W              60 56  190/ 12/ 14 1015.7F   3/10   2/10
ST AUGUSTINE               82     260/  9/ 13 1017.2F

$$
FLZ040-043>046-052-053-057-058-063-144-052100-
INTERIOR CENTRAL FLORIDA

CITY           SKY/WX    TMP DP  RH WIND       PRES   REMARKS
OCALA          PTSUNNY   82  64  54 W16G25    30.06F
THE VILLAGES     N/A     86  63  45 SW9G18    29.96F
LEESBURG       PTSUNNY   83  64  52 W9G17     30.06F
SANFORD        MOSUNNY   86  63  45 W14G25    30.05F
ORLANDO EXEC   MOSUNNY   86  64  47 SW10      30.05F
ORLANDO INTL   MOSUNNY   86  65  49 SW12G20   30.06F
KISSIMMEE      PTSUNNY   84  64  51 SW10G18   30.06F
WINTER HAVEN   PTSUNNY   86  65  49 W14       30.08F
LAKELAND       PTSUNNY   81  66  61 W14G20    30.08F
BARTOW         PTSUNNY   82  63  51 SW15      30.08F
OKEECHOBEE     PTSUNNY   81  66  61 S7        30.08S

$$
FLZ041-047-054-059-064-141-147-052100-
EAST CENTRAL FLORIDA

CITY           SKY/WX    TMP DP  RH WIND       PRES   REMARKS
ORMOND BEACH   MOSUNNY   84  63  48 SW17G25   30.04F
DAYTONA BEACH  MOSUNNY   86  63  45 SW13G21   30.04F
DELAND         MOCLDY    84  63  48 SW13      30.06F
NEW SMYRNA BEA MOSUNNY   86  63  45 SW17G30   30.05F
JFK SPACE CTR  MOSUNNY   85  63  47 SW13      30.04F
TITUSVILLE     MOSUNNY   86  64  48 SW16      30.06F
CAPE CANAVERAL SUNNY     81  69  68 S14       30.05F
PATRICK AFB    SUNNY     78  70  76 SE13      30.05F
MELBOURNE      MOSUNNY   88  61  40 SW14      30.05F
VERO BEACH     SUNNY     87  61  41 SW9       30.07F
FT PIERCE      SUNNY     87  61  41 SW12G18   30.06F

STATION/POSITION SKY/WX   TEMP    WIND        PRES    WAVE   SWELL
                          AIR SEA DIR/SP/G            HT/PER HT/PER
                          (F)     (DEG/KT/KT) (MB)    (FT/S) (FT/S)
28.5N   80.2W              73 71  170/ 10/ 12 1019.0F
28.9N   78.5W              75 75  180/ 14/ 16 1019.5S   4/11   2/11
TRIDENT PIER               75 69  140/ 10/ 13 1018.4F
28.4N   80.5W                 69                N/A     3/ 6
27.6N   80.2W                 74                N/A     4/ 5   2/11

$$
FLZ050-056-061-142-242-148-248-149-249-151-251-155-255-
160-260-052100-
WEST CENTRAL FLORIDA

CITY           SKY/WX    TMP DP  RH WIND       PRES   REMARKS
CRYSTAL RIVER  MOCLDY    79  68  69 SW12G22   30.07F
INVERNESS      CLOUDY    82  63  51 SW6       30.07F
BROOKSVILLE    MOSUNNY   84  66  54 SW13      30.08F
ZEPHYRHILLS    MOCLDY    82  63  51 W12G17    30.09F
CLEARWATER     PTSUNNY   80  71  74 S16       30.08F
TAMPA INTL     PTSUNNY   78  70  76 S15       30.09F
TAMPA EXEC     SUNNY     82  70  65 SW12G22   30.09F
PLANT CITY     MOSUNNY  N/A N/A N/A SW15      30.10F
MACDILL AFB    MOSUNNY   80  74  83 SW20      30.09F
PETER O KNIGHT MOSUNNY   81  72  74 SW14G22   30.09F
ST PETERSBURG  PTSUNNY   77  70  79 SW14G23   30.08F
SARASOTA       PTSUNNY   78  71  79 S13       30.08F
VENICE         FAIR      77  72  83 S10G18    30.11S

STATION/POSITION SKY/WX   TEMP    WIND        PRES    WAVE   SWELL
                          AIR SEA DIR/SP/G            HT/PER HT/PER
                          (F)     (DEG/KT/KT) (MB)    (FT/S) (FT/S)
CEDAR KEY                  67     200/ 13/ 16 1019.3F
28.5N   84.5W              71 69  180/ 10/ 12 1017.8F   3/ 7   2/ 7
27.3N   84.3W                 72                N/A     4/ 7
CLEARWATER BEACH           71 67  200/ 14/ 16 1018.8F
MIDDLE TAMPA BAY           71     240/  9/ 10 1019.4F
VENICE                     72 71  180/  6/  7 1018.8S

$$
FLZ066-069-070-075>078-162-262-165-265-052100-
SOUTHWEST FLORIDA AND KEYS

CITY           SKY/WX    TMP DP  RH WIND       PRES   REMARKS
PUNTA GORDA    SUNNY     84  70  62 SW15      30.10F
FT MYERS       MOSUNNY   81  70  69 SW15G21   30.08F
SOUTHWEST INTL SUNNY     84  68  58 SW14      30.08F
NAPLES         PTSUNNY   82  71  69 S14       30.08F
MARCO ISLAND   PTCLDY    82  70  65 S13       30.09F
IMMOKALEE      MOCLDY   N/A N/A N/A CALM      30.08F
MARATHON       MOSUNNY   84  73  69 SE7       30.09F
KEY WEST NAS   MOSUNNY   81  71  71 SE10      30.08F
KEY WEST INTL  SUNNY     80  73  79 SE8       30.08F

STATION/POSITION SKY/WX   TEMP    WIND        PRES    WAVE   SWELL
                          AIR SEA DIR/SP/G            HT/PER HT/PER
                          (F)     (DEG/KT/KT) (MB)    (FT/S) (FT/S)
VENICE                     72 71  180/  6/  7 1018.8S
NAPLES                     77 72  190/  2/  6 1018.8F
26.0N   85.6W              77 77  170/  8/  8 1017.9F   4/ 6   3/ 6
DRY TORTUGAS               76     150/ 10/ 11 1018.7F
NW FL BAY                  78     160/  9/ 11 1020.1F
SAND KEY                   76     130/  8/  9 1018.6F
SOMBRERO KEY               80     140/  7/  7 1019.5F
LONG KEY                   78 79   90/  5/  8 1020.1F
MOLASSES REEF              77 76  160/ 11/ 12 1019.1F

$$
FLZ067-068-071>074-168-172>174-052100-
SOUTHEAST FLORIDA

CITY           SKY/WX    TMP DP  RH WIND       PRES   REMARKS
W PALM BEACH   MOSUNNY   85  69  58 SE18      30.07F
FT LAUDER-EXEC MOSUNNY   84  69  60 SE17      30.08F
FT LAUDERDALE  MOSUNNY   82  72  71 SE18      30.08F
POMPANO BEACH  SUNNY     81  70  69 S20       30.09F
PEMBROKE PINES SUNNY     84  67  56 SE15      30.09F
OPA LOCKA      MOSUNNY   85  67  54 S15       30.09F
MIAMI          MOSUNNY   83  66  56 SE12G21   30.09F
WEST KENDALL   SUNNY     83  68  60 S13G20    30.09F
HOMESTEAD      SUNNY     82  69  64 SE9       30.10S

STATION/POSITION SKY/WX   TEMP    WIND        PRES    WAVE   SWELL
                          AIR SEA DIR/SP/G            HT/PER HT/PER
                          (F)     (DEG/KT/KT) (MB)    (FT/S) (FT/S)
PORT EVERGLADES            79     150/  9/ 13 1019.0
VIRGINIA KEY               78 77  160/ 10/ 13 1019.1F
LAKE WORTH                 76 77  160/ 15/ 18 1018.4F
SETTLEMENT POINT           77     210/ 15/ 18 1019.9F

$$



USA.gov is the U.S. government's official web portal to all federal, state and local government web resources and services.